This is the latest recevied weather packets stored in our database for station/object W0SS-13. If no packets are shown the sender has not sent any weather packets the latest 10 day(s).
| Time | Temp. | Humidity | Pressure | Rain* | Wind** | Luminosity | Snow |
|---|---|---|---|---|---|---|---|
| 1777753237 | 16.67° C | 36% | 1021.2 hPa | 0 mm | - | 679 W/m² | - |
| 1777752932 | 16.11° C | 37% | 1021.2 hPa | 0 mm | - | 691 W/m² | - |
| 1777752629 | 16.11° C | 34% | 1021.2 hPa | 0 mm | - | 700 W/m² | - |
| 1777752325 | 16.11° C | 34% | 1021.5 hPa | 0 mm | - | 711 W/m² | - |
| 1777752023 | 16.11° C | 33% | 1021.3 hPa | 0 mm | - | 719 W/m² | - |
| 1777751720 | 16.11° C | 35% | 1021.4 hPa | 0 mm | - | 726 W/m² | - |
| 1777751416 | 16.11° C | 37% | 1021.5 hPa | 0 mm | - | 732 W/m² | - |
| 1777751113 | 16.11° C | 34% | 1021.3 hPa | 0 mm | - | 740 W/m² | - |
| 1777750809 | 16.11° C | 34% | 1021.6 hPa | 0 mm | - | 747 W/m² | - |
| 1777750507 | 16.11° C | 34% | 1021.7 hPa | 0 mm | - | 754 W/m² | - |
| 1777750203 | 16.11° C | 36% | 1021.7 hPa | 0 mm | - | 761 W/m² | - |
| 1777749899 | 15.56° C | 36% | 1021.4 hPa | 0 mm | - | 766 W/m² | - |
| 1777749596 | 15.56° C | 39% | 1021.7 hPa | 0 mm | - | 772 W/m² | - |
| 1777749294 | 15.56° C | 40% | 1022 hPa | 0 mm | - | 780 W/m² | - |
| 1777748991 | 15.56° C | 37% | 1021.6 hPa | 0 mm | - | 781 W/m² | - |
| 1777748688 | 15.56° C | 38% | 1022 hPa | 0 mm | - | 785 W/m² | - |
| 1777748384 | 16.11° C | 38% | 1022 hPa | 0 mm | - | 788 W/m² | - |
| 1777748080 | 15° C | 37% | 1022 hPa | 0 mm | - | 792 W/m² | - |
| 1777747777 | 15.56° C | 39% | 1022 hPa | 0 mm | - | 796 W/m² | - |
| 1777747472 | 15° C | 36% | 1022.4 hPa | 0 mm | - | 802 W/m² | - |
| 1777747169 | 15° C | 37% | 1022.3 hPa | 0 mm | - | 804 W/m² | - |
| 1777746866 | 15° C | 36% | 1022.2 hPa | 0 mm | - | 805 W/m² | - |
| 1777746561 | 15° C | 40% | 1022.3 hPa | 0 mm | - | 805 W/m² | - |
| 1777746256 | 15° C | 37% | 1022.3 hPa | 0 mm | - | 811 W/m² | - |
| 1777745953 | 14.44° C | 42% | 1022.4 hPa | 0 mm | - | 806 W/m² | - |
* Rain latest hour (hover to see other rain measurements)
** Current wind speed in m/s (hover to see current wind gust speed)